User: anonymous   Login
Location: Unspecified
(0.0000°N, 0.0000°E)
Time: 02:56:47
(UTC+00:00)
Language:

TEIKYOSAT-4 (OORURI) - Orbit

View from above orbital plane
View from above orbital plane
View from above satellite
View from above satellite

Ground track
Ground track

The orbit is defined by the following mean orbital elements,

1 49396U          26145.05152964 +.00000000 +00000-0 +91505-4 0 00008
2 49396  97.3685 175.4344 0012554  20.8330 339.3409 15.09411383    08
Epoch (UTC): 25 May 2026 01:14:12
Eccentricity: 0.0012554
inclination: 97.3685°
perigee height: 529 km
apogee height: 547 km
right ascension of ascending node: 175.4344°
argument of perigee: 20.8330°
revolutions per day: 15.09411383
mean anomaly at epoch: 339.3409°

The dashed part of the orbit path shows where the satellite is in the earth's shadow,  

DLR